FENGYUN 1C DEB

Satellite information

Favourite Embed

Satellite Type and Status

DEBRISIN ORBIT

Key statistics

Satellite FENGYUN 1C DEB at a glance.

Uptime

9493

Days in orbit

Revolutions

≈ 14.6

Per day

Orbit

SSO

Sun Synchronous Orbit

Inclination

99.1

Latest

Satellite identification and parameters

Extended collection of information and parameters for FENGYUN 1C DEB.

Object identification

Identified? True

Debris? True

Object name: FENGYUN 1C DEB

International designator: 1999-025WN

Object number (NORAD): 30229

Object ID (CCSDS): 30229

Country: PEOPLES REPUBLIC OF CHINA (PRC)

Current information (Y/N): Y

RCS size: SMALL

Orbital parameters

Period: 98.842 minutes

Inclination: 99.08 deg

SMA: 7081.411 km

Apoapsis: 730.777 km

Periapsis: 675.774 km

RAAN: 165.1881 deg

Eccentricy: 0.0038836

Argument of periapsis: 352.1061 deg

Mean anomaly: 127.2322 deg

Mean motion: 14.56877725 rev/day

Mean motion (dot): 0.00008682 rev/day2

B* drag term: 0.0019265 1/REarth

Two-line elements (TLE)

Creation date: May 6, 2025, 3:54 a.m.

Reference frame: TEME

Reference center: EARTH

Epoch: May 5, 2025, 2:45 p.m. UTC

TLE line 0: 0 FENGYUN 1C DEB

TLE line 1: 1 30229U 99025WN 25125.61471972 .00008682 00000-0 19265-2 0 9992

TLE line 2: 2 30229 99.0800 165.1881 0038836 352.1061 127.2322 14.56877725957035

Live tracking on map

Real-time ground track for satellite FENGYUN 1C DEB.

In-orbit conjunctions

A list of the most updated potential collisions computed for object FENGYUN 1C DEB.

Target Orbit TCA Probability of collision Miss distance Type
THOR BURNER 2A DEB SSO 2024-07-03 16:30:29 0.00015274 672.0 (m) DEBRIS
CZ-6A DEB SSO 2024-06-30 13:02:07 0.000151008 427.0 (m) DEBRIS

Associated space launch

Chinese polar orbiting meteorological satellite

FENGYUN 1C DEB was lifted into orbit during the mission ‘Long March 4B | Feng Yun 1C’, on board a Long March 4B space rocket.

The launch took place on May 10, 1999, 1:33 a.m. from Launch Complex 7.

For more information about the launch, click the button.

Launch to space Long March 4B | Feng Yun 1C
Long March 4B | Feng Yun 1C

Agency: N/A

Status: Launch Successful

Launch date: May 10, 1999, 1:33 a.m. UTC

Rocket: Long March 4B

Launch pad: Launch Complex 7

Location: Taiyuan Satellite Launch Center, People's Republic of China

...

Latest news about this satellite

There are no fresh news available about this satellite. Check back as we update our databases every day.


Newsletter sign-up

Weekly statistics, charts and insights to help you stay on top of the space industry.